Regional Weather Roundup
Issued by NWS

Home | Current Version | Previous Version | Text Only | Print | Product List | Glossary On
Versions: 1 2 3 4 5 6 7 8 9 10 11 12 13 14 15 16 17 18 19 20 21 22 23 24 25 26 27 28 29 30 31 32 33 34 35 36 37 38 39 40 41 42 43 44 45 46 47 48 49 50
000
ASUS43 KLMK 022310
RWRKY
KENTUCKY REGIONAL WEATHER ROUNDUP
NATIONAL WEATHER SERVICE LOUISVILLE KY
700 PM EDT SUN AUG 02 2015

NOTE "FAIR" INDICATES FEW OR NO CLOUDS BELOW 12,000 FEET
WITH NO SIGNIFICANT WEATHER AND/OR OBSTRUCTIONS TO VISIBILITY.

KYZ001>023-026-027-061>063-070>075-030000-
WESTERN AND SOUTH CENTRAL KENTUCKY

CITY           SKY/WX    TMP DP  RH WIND       PRES   REMARKS
PADUCAH        SUNNY     88  72  58 S5        29.89F HX  94
HENDERSON      SUNNY     84  70  61 S7        29.89S
OWENSBORO      SUNNY     87  66  49 SW8       29.91F
HOPKINSVILLE   SUNNY     87  63  45 W7        29.92F
BOWLING GREEN  SUNNY     85  63  47 E6        29.93F
GLASGOW        SUNNY    N/A N/A N/A CALM      29.93F
$$

KYZ024-025-028>034-038-045-046-053-030000-
NORTH CENTRAL KENTUCKY

CITY           SKY/WX    TMP DP  RH WIND       PRES   REMARKS
LOUISVILLE/SDF MOSUNNY   87  59  38 SW10      29.90F
LOUISVILLE/LOU SUNNY     88  57  34 W3        29.91F
FORT KNOX      SUNNY     85  62  45 S6        29.91F
$$

KYZ035>037-039>044-047>052-055>060-089>105-030000-
NORTHEAST KENTUCKY

CITY           SKY/WX    TMP DP  RH WIND       PRES   REMARKS
LEXINGTON      SUNNY     84  60  44 SW6       29.95F
COVINGTON      MOSUNNY   83  61  47 S8        29.92F
FRANKFORT      SUNNY     84  59  42 S7        29.92F
$$

KYZ054-064>069-076>088-106>120-030000-
SOUTHEAST KENTUCKY

CITY           SKY/WX    TMP DP  RH WIND       PRES   REMARKS
JACKSON        SUNNY     83  58  42 CALM      29.97F
LONDON         SUNNY     85  57  38 E6        29.96F
SOMERSET       MOSUNNY   79  55  44 CALM      29.96F
MIDDLESBORO    SUNNY     86  59  40 CALM      29.95F
MONTICELLO     CLEAR     87  68  53 CALM      29.98F HX  90
$$



USA.gov is the U.S. government's official web portal to all federal, state and local government web resources and services.